DELTA 1 DEB, 42568

Orbit data source: Space-Track

DELTA 1 DEB, 42568 is space debris in SSO originally from a launch on Sun, 23 Jul 1972 UTC launched from the Air Force Western Test Range (AFWTR). Debris objects in space refer to the collection of defunct objects orbiting the Earth. Examples of debris include non-operational satellites, rocket bodies, and fragments generated from explosions, collisions, or faulty payload assembly.

Loading next visibility...
Identifier
42568, 1972-058KB
Orbit
SSO
Country
Flag of USUS
Related business
Manufacturer
Unknown
Mission
Spacecraft
Bus & Motor
Unknown
Mass
Unknown
Launch date (UTC)
1972-07-23 (54 years ago)
Launch vehicle
Unknown
Launch site
Air Force Western Test Range (AFWTR)
Object type
Payload
Rocket body
Debris
Shape & HBR
Unknown shape, 0.1 m
Radar Cross Section
Small (<0.1 m²)

Expand to show TLE details & history
Last TLE update: 1 day ago

TLE from 1 day ago
0 DELTA 1 DEB
1 42568U 72058KB  26167.36057806  .00000363  00000-0  19047-3 0  9990
2 42568  98.9356 199.0445 0026211 237.7957 122.0677 14.20291392 79623
Epoch: 2026-06-16T08:39Z
TLE epoch observation values (Epoch: 2026-06-16T08:39:13.944Z)
Latitude
-0.00003°
Longitude
164.60268°
Altitude
837.335 km
Speed
7.429 km/s
True Right ascension
13h 16m 10s
True Declination
0° 00' 00"
Sunlit
Object was in daylight at epoch
Visualization orbit readout
Latitude
Unknown
Longitude
Unknown
Altitude
Unknown
Speed
Unknown
Apparent Right ascension
Unknown
Apparent Declination
Unknown
Sunlit
N/A
Visualization observer readout
Local Sidereal Time
19:28:32
Azimuth
Unknown
Elevation
Unknown
Doppler factor
Unknown
Orbital elements
Apogee altitude
840.408 km
Perigee altitude
802.666 km
Semi-major axis
7,199.674 km
Eccentricity
0.00262
Inclination
98.9356°
RAAN
199.0445°
Arg. of periapsis
237.7957°
True anomaly
122.32179°
Mean anomaly
122.0677°
Eccentric anomaly
122.19479°
Mean motion
3.55283 °/min
Orbital period
101.33 mins
BSTAR
0.00019047
Loading maneuver chart data...
Computing Atmospheric mass density...

Documentation

Showing up to 5 results
|